Time,TemperatureF,DewpointF,PressureIn,WindDirection,WindDirectionDegrees,WindSpeedMPH,WindSpeedGustMPH,Humidity,HourlyPrecipIn,Conditions,Clouds,dailyrainin,SoftwareType,DateUTC
2014-11-26 00:04:00,30.1,22.8,29.93,WSW,257,2.7,3.6,74,0.00,,,0.00,WUHU216HW,2014-11-26 05:04:00,
2014-11-26 00:09:00,30.1,22.8,29.93,WSW,249,2.4,3.6,74,0.00,,,0.00,WUHU216HW,2014-11-26 05:09:00,
2014-11-26 00:14:00,30.1,22.8,29.93,West,270,4.0,4.0,74,0.00,,,0.00,WUHU216HW,2014-11-26 05:14:00,
2014-11-26 00:19:00,30.1,22.8,29.93,WSW,254,1.8,4.7,74,0.00,,,0.00,WUHU216HW,2014-11-26 05:19:00,
2014-11-26 00:24:00,30.1,22.8,29.92,WSW,248,1.1,4.7,74,0.00,,,0.00,WUHU216HW,2014-11-26 05:24:00,
2014-11-26 00:29:00,30.1,22.8,29.92,West,270,1.8,3.1,74,0.00,,,0.00,WUHU216HW,2014-11-26 05:29:00,
2014-11-26 00:34:00,30.1,22.8,29.92,West,270,3.1,4.0,74,0.00,,,0.00,WUHU216HW,2014-11-26 05:34:00,
2014-11-26 00:39:00,30.1,22.8,29.92,West,277,1.3,4.0,74,0.00,,,0.00,WUHU216HW,2014-11-26 05:39:00,
2014-11-26 00:44:00,30.1,22.8,29.92,WNW,300,1.8,3.4,74,0.00,,,0.00,WUHU216HW,2014-11-26 05:44:00,
2014-11-26 00:49:00,29.9,22.6,29.92,WSW,252,1.9,3.4,74,0.00,,,0.00,WUHU216HW,2014-11-26 05:49:00,
2014-11-26 00:54:00,30.1,22.8,29.92,WSW,256,2.9,3.6,74,0.00,,,0.00,WUHU216HW,2014-11-26 05:54:00,
2014-11-26 00:59:00,30.1,22.4,29.92,WNW,293,1.1,3.6,73,0.00,,,0.00,WUHU216HW,2014-11-26 05:59:00,
2014-11-26 01:04:00,30.1,22.4,29.92,WNW,293,1.1,2.7,73,0.00,,,0.00,WUHU216HW,2014-11-26 06:04:00,
2014-11-26 01:09:00,29.9,22.2,29.92,NW,312,1.6,2.5,73,0.00,,,0.00,WUHU216HW,2014-11-26 06:09:00,
2014-11-26 01:14:00,29.9,22.6,29.92,NNW,338,0.5,2.5,74,0.00,,,0.00,WUHU216HW,2014-11-26 06:14:00,
2014-11-26 01:19:00,29.9,22.2,29.91,WNW,293,1.7,3.8,73,0.00,,,0.00,WUHU216HW,2014-11-26 06:19:00,
2014-11-26 01:24:00,29.9,22.2,29.91,WNW,293,1.0,3.8,73,0.00,,,0.00,WUHU216HW,2014-11-26 06:24:00,
2014-11-26 01:29:00,29.9,22.2,29.91,WNW,293,0.6,1.1,73,0.00,,,0.00,WUHU216HW,2014-11-26 06:29:00,
2014-11-26 01:34:00,29.9,22.2,29.91,West,278,1.4,2.0,73,0.00,,,0.00,WUHU216HW,2014-11-26 06:34:00,
2014-11-26 01:39:00,29.9,22.2,29.90,WSW,248,0.4,2.0,73,0.00,,,0.00,WUHU216HW,2014-11-26 06:39:00,
2014-11-26 01:44:00,29.9,22.2,29.90,WSW,248,0.0,1.3,73,0.00,,,0.00,WUHU216HW,2014-11-26 06:44:00,
2014-11-26 01:49:00,29.9,22.6,29.90,WSW,248,0.0,0.4,74,0.00,,,0.00,WUHU216HW,2014-11-26 06:49:00,
2014-11-26 01:54:00,29.9,22.6,29.90,WSW,248,0.0,0.0,74,0.00,,,0.00,WUHU216HW,2014-11-26 06:54:00,
2014-11-26 01:59:00,30.1,22.8,29.90,WSW,248,0.0,0.0,74,0.00,,,0.00,WUHU216HW,2014-11-26 06:59:00,
2014-11-26 02:04:00,30.1,22.8,29.89,SW,225,0.4,0.9,74,0.00,,,0.00,WUHU216HW,2014-11-26 07:04:00,
2014-11-26 02:09:00,30.1,22.8,29.90,SW,225,0.0,0.9,74,0.00,,,0.00,WUHU216HW,2014-11-26 07:09:00,
2014-11-26 02:14:00,30.2,22.9,29.90,SW,225,0.0,0.0,74,0.00,,,0.00,WUHU216HW,2014-11-26 07:14:00,
2014-11-26 02:19:00,30.1,22.4,29.90,SW,225,0.0,0.0,73,0.00,,,0.00,WUHU216HW,2014-11-26 07:19:00,
2014-11-26 02:24:00,30.1,22.4,29.90,SW,225,0.0,0.0,73,0.00,,,0.00,WUHU216HW,2014-11-26 07:24:00,
2014-11-26 02:29:00,30.1,22.4,29.90,SW,225,0.2,0.2,73,0.00,,,0.00,WUHU216HW,2014-11-26 07:29:00,
2014-11-26 02:34:00,29.9,22.2,29.90,NNE,29,1.7,3.1,73,0.00,,,0.00,WUHU216HW,2014-11-26 07:34:00,
2014-11-26 02:39:00,29.7,22.1,29.90,ENE,68,2.0,3.1,73,0.00,,,0.00,WUHU216HW,2014-11-26 07:39:00,
2014-11-26 02:43:00,29.7,22.4,29.90,ENE,68,0.0,2.2,74,0.00,,,0.00,WUHU216HW,2014-11-26 07:43:00,
2014-11-26 02:48:00,29.7,22.1,29.90,North,0,1.0,2.2,73,0.00,,,0.00,WUHU216HW,2014-11-26 07:48:00,
2014-11-26 02:53:00,29.7,22.1,29.90,NW,321,1.9,2.5,73,0.00,,,0.00,WUHU216HW,2014-11-26 07:53:00,
2014-11-26 02:58:00,29.7,22.4,29.90,NW,315,0.3,2.5,74,0.00,,,0.00,WUHU216HW,2014-11-26 07:58:00,
2014-11-26 03:03:00,29.7,22.4,29.90,NW,315,0.9,1.8,74,0.00,,,0.00,WUHU216HW,2014-11-26 08:03:00,
2014-11-26 03:08:00,29.7,22.4,29.90,East,81,1.2,2.0,74,0.00,,,0.00,WUHU216HW,2014-11-26 08:08:00,
2014-11-26 03:13:00,29.7,22.4,29.91,ENE,68,2.0,2.0,74,0.00,,,0.00,WUHU216HW,2014-11-26 08:13:00,
2014-11-26 03:18:00,29.7,22.4,29.91,NE,45,0.4,2.0,74,0.00,,,0.00,WUHU216HW,2014-11-26 08:18:00,
2014-11-26 03:23:00,29.7,22.1,29.91,NE,45,0.8,2.0,73,0.00,,,0.00,WUHU216HW,2014-11-26 08:23:00,
2014-11-26 03:28:00,29.9,22.6,29.91,North,0,0.2,1.1,74,0.00,,,0.00,WUHU216HW,2014-11-26 08:28:00,
2014-11-26 03:33:00,29.9,22.6,29.91,North,0,0.0,0.7,74,0.00,,,0.00,WUHU216HW,2014-11-26 08:33:00,
2014-11-26 03:38:00,30.1,22.8,29.91,North,0,0.0,0.2,74,0.00,,,0.00,WUHU216HW,2014-11-26 08:38:00,
2014-11-26 03:43:00,30.2,22.9,29.91,North,0,0.0,0.0,74,0.00,,,0.00,WUHU216HW,2014-11-26 08:43:00,
2014-11-26 03:48:00,30.2,22.9,29.91,North,0,0.0,0.0,74,0.00,,,0.00,WUHU216HW,2014-11-26 08:48:00,
2014-11-26 03:53:00,30.1,22.4,29.90,North,0,0.0,0.0,73,0.00,,,0.00,WUHU216HW,2014-11-26 08:53:00,
2014-11-26 03:58:00,30.1,22.4,29.90,East,90,0.0,0.9,73,0.00,,,0.00,WUHU216HW,2014-11-26 08:58:00,
2014-11-26 04:03:00,30.1,22.4,29.90,ESE,113,0.4,0.9,73,0.00,,,0.00,WUHU216HW,2014-11-26 09:03:00,
2014-11-26 04:08:00,30.1,22.4,29.90,ESE,113,0.0,0.4,73,0.00,,,0.00,WUHU216HW,2014-11-26 09:08:00,
2014-11-26 04:13:00,30.1,22.8,29.90,ESE,113,0.0,0.0,74,0.00,,,0.00,WUHU216HW,2014-11-26 09:13:00,
2014-11-26 04:18:00,30.1,22.8,29.90,ESE,113,0.4,0.4,74,0.00,,,0.00,WUHU216HW,2014-11-26 09:18:00,
2014-11-26 04:23:00,29.7,22.4,29.90,ESE,113,0.7,0.7,74,0.00,,,0.00,WUHU216HW,2014-11-26 09:23:00,
2014-11-26 04:28:00,29.5,22.2,29.90,NNE,23,0.6,2.5,74,0.00,,,0.00,WUHU216HW,2014-11-26 09:28:00,
2014-11-26 04:33:00,29.5,22.2,29.90,ENE,68,1.1,2.5,74,0.00,,,0.00,WUHU216HW,2014-11-26 09:33:00,
2014-11-26 04:38:00,29.3,22.4,29.90,ENE,68,0.4,1.1,75,0.00,,,0.00,WUHU216HW,2014-11-26 09:38:00,
2014-11-26 04:43:00,29.3,22.4,29.90,NE,45,0.7,1.1,75,0.00,,,0.00,WUHU216HW,2014-11-26 09:43:00,
2014-11-26 04:48:00,29.3,22.4,29.90,NE,45,0.4,1.1,75,0.00,,,0.00,WUHU216HW,2014-11-26 09:48:00,
2014-11-26 04:53:00,29.3,22.4,29.90,NE,45,0.6,1.1,75,0.00,,,0.00,WUHU216HW,2014-11-26 09:53:00,
2014-11-26 04:58:00,29.3,22.7,29.90,NNE,23,0.7,1.3,76,0.00,,,0.00,WUHU216HW,2014-11-26 09:58:00,
2014-11-26 05:03:00,29.2,22.5,29.90,NNE,23,0.7,1.3,76,0.00,,,0.00,WUHU216HW,2014-11-26 10:03:00,
2014-11-26 05:08:00,29.3,22.7,29.90,NNE,23,0.4,1.1,76,0.00,,,0.00,WUHU216HW,2014-11-26 10:08:00,
2014-11-26 05:13:00,29.5,22.9,29.90,NNE,23,0.3,0.7,76,0.00,,,0.00,WUHU216HW,2014-11-26 10:13:00,
2014-11-26 05:18:00,29.5,22.9,29.90,NNE,23,0.0,0.7,76,0.00,,,0.00,WUHU216HW,2014-11-26 10:18:00,
2014-11-26 05:23:00,29.5,22.9,29.90,NNE,23,0.4,0.4,76,0.00,,,0.00,WUHU216HW,2014-11-26 10:23:00,
2014-11-26 05:28:00,29.5,22.5,29.89,NNE,23,0.0,0.7,75,0.00,,,0.00,WUHU216HW,2014-11-26 10:28:00,
2014-11-26 05:33:00,29.5,22.5,29.89,NNE,23,0.0,0.7,75,0.00,,,0.00,WUHU216HW,2014-11-26 10:33:00,
2014-11-26 05:38:00,29.5,22.5,29.89,NNE,23,0.3,0.4,75,0.00,,,0.00,WUHU216HW,2014-11-26 10:38:00,
2014-11-26 05:43:00,29.5,22.5,29.89,NNE,23,0.0,0.4,75,0.00,,,0.00,WUHU216HW,2014-11-26 10:43:00,
2014-11-26 05:48:00,29.5,22.5,29.89,NNE,23,0.0,0.2,75,0.00,,,0.00,WUHU216HW,2014-11-26 10:48:00,
2014-11-26 05:53:00,29.5,22.5,29.88,NNE,23,0.7,0.7,75,0.00,,,0.00,WUHU216HW,2014-11-26 10:53:00,
2014-11-26 05:58:00,29.5,22.5,29.89,NNE,23,0.9,1.3,75,0.00,,,0.00,WUHU216HW,2014-11-26 10:58:00,
2014-11-26 06:03:00,29.5,22.5,29.89,NNE,23,0.0,1.3,75,0.00,,,0.00,WUHU216HW,2014-11-26 11:03:00,
2014-11-26 06:08:00,29.5,22.5,29.89,NNE,23,0.4,1.1,75,0.00,,,0.00,WUHU216HW,2014-11-26 11:08:00,
2014-11-26 06:13:00,29.5,22.5,29.89,NNE,23,0.4,1.1,75,0.00,,,0.00,WUHU216HW,2014-11-26 11:13:00,
2014-11-26 06:18:00,29.5,22.5,29.89,NNE,23,0.6,1.1,75,0.00,,,0.00,WUHU216HW,2014-11-26 11:18:00,
2014-11-26 06:23:00,29.3,22.4,29.88,NNE,23,0.3,1.1,75,0.00,,,0.00,WUHU216HW,2014-11-26 11:23:00,
2014-11-26 06:28:00,29.5,22.5,29.89,NNE,23,0.0,0.7,75,0.00,,,0.00,WUHU216HW,2014-11-26 11:28:00,
2014-11-26 06:33:00,29.5,22.5,29.89,NNE,23,0.0,0.2,75,0.00,,,0.00,WUHU216HW,2014-11-26 11:33:00,
2014-11-26 06:38:00,29.5,22.5,29.88,NNE,23,0.4,0.4,75,0.00,,,0.00,WUHU216HW,2014-11-26 11:38:00,
2014-11-26 06:43:00,29.5,22.5,29.88,NNE,23,0.5,1.1,75,0.00,,,0.00,WUHU216HW,2014-11-26 11:43:00,
2014-11-26 06:48:00,29.5,22.9,29.88,NNE,23,0.4,1.1,76,0.00,,,0.00,WUHU216HW,2014-11-26 11:48:00,
2014-11-26 06:53:00,29.5,22.9,29.88,NNE,23,0.7,0.9,76,0.00,,,0.00,WUHU216HW,2014-11-26 11:53:00,
2014-11-26 06:58:00,29.5,22.9,29.88,NNE,23,0.6,0.9,76,0.00,,,0.00,WUHU216HW,2014-11-26 11:58:00,
2014-11-26 07:03:00,29.5,22.9,29.88,NNE,23,0.0,0.9,76,0.00,,,0.00,WUHU216HW,2014-11-26 12:03:00,
2014-11-26 07:08:00,29.7,23.1,29.88,NNE,23,0.4,0.4,76,0.00,,,0.00,WUHU216HW,2014-11-26 12:08:00,
2014-11-26 07:13:00,29.9,23.2,29.88,NNE,23,0.3,0.7,76,0.00,,,0.00,WUHU216HW,2014-11-26 12:13:00,
2014-11-26 07:18:00,29.9,23.2,29.89,NNE,23,0.0,0.7,76,0.00,,,0.00,WUHU216HW,2014-11-26 12:18:00,
2014-11-26 07:23:00,29.7,23.1,29.88,NNE,23,0.6,0.9,76,0.00,,,0.00,WUHU216HW,2014-11-26 12:23:00,
2014-11-26 07:28:00,29.7,23.1,29.88,NNE,23,0.4,0.9,76,0.00,,,0.00,WUHU216HW,2014-11-26 12:28:00,
2014-11-26 07:33:00,29.7,23.1,29.89,NNE,23,0.4,0.7,76,0.00,,,0.00,WUHU216HW,2014-11-26 12:33:00,
2014-11-26 07:38:00,29.7,23.1,29.89,NNE,23,0.0,0.7,76,0.00,,,0.00,WUHU216HW,2014-11-26 12:38:00,
2014-11-26 07:43:00,29.7,23.1,29.89,NNE,23,0.4,0.4,76,0.00,,,0.00,WUHU216HW,2014-11-26 12:43:00,
2014-11-26 07:48:00,29.9,23.2,29.89,NNE,23,0.0,0.4,76,0.00,,,0.00,WUHU216HW,2014-11-26 12:48:00,
2014-11-26 07:53:00,29.7,23.1,29.89,NNE,23,0.0,0.4,76,0.00,,,0.00,WUHU216HW,2014-11-26 12:53:00,
2014-11-26 07:58:00,29.7,23.1,29.89,NNE,23,0.4,0.4,76,0.00,,,0.00,WUHU216HW,2014-11-26 12:58:00,
2014-11-26 08:03:00,29.9,23.2,29.89,NNE,23,0.0,0.7,76,0.00,,,0.00,WUHU216HW,2014-11-26 13:03:00,
2014-11-26 08:08:00,29.9,23.2,29.89,NNE,23,0.2,0.7,76,0.00,,,0.00,WUHU216HW,2014-11-26 13:08:00,
2014-11-26 08:13:00,29.9,23.5,29.89,NNE,23,0.0,0.2,77,0.00,,,0.00,WUHU216HW,2014-11-26 13:13:00,
2014-11-26 08:18:00,29.9,23.5,29.88,NNE,23,0.7,1.1,77,0.00,,,0.00,WUHU216HW,2014-11-26 13:18:00,
2014-11-26 08:23:00,29.9,23.5,29.89,NNE,23,0.0,1.1,77,0.00,,,0.00,WUHU216HW,2014-11-26 13:23:00,
2014-11-26 08:28:00,30.1,23.7,29.89,NNE,23,0.3,1.1,77,0.00,,,0.00,WUHU216HW,2014-11-26 13:28:00,
2014-11-26 08:33:00,30.1,23.7,29.89,NNE,23,0.4,0.9,77,0.00,,,0.00,WUHU216HW,2014-11-26 13:33:00,
2014-11-26 08:38:00,30.1,23.7,29.89,NNE,23,0.2,0.9,77,0.00,,,0.00,WUHU216HW,2014-11-26 13:38:00,
2014-11-26 08:43:00,30.2,23.9,29.88,NNE,23,0.0,0.9,77,0.00,,,0.00,WUHU216HW,2014-11-26 13:43:00,
2014-11-26 08:48:00,30.2,23.9,29.89,ENE,68,0.4,1.6,77,0.00,,,0.00,WUHU216HW,2014-11-26 13:48:00,
2014-11-26 08:53:00,30.4,24.0,29.89,East,90,0.4,1.6,77,0.00,,,0.00,WUHU216HW,2014-11-26 13:53:00,
2014-11-26 08:58:00,30.6,24.2,29.89,East,90,0.4,1.6,77,0.00,,,0.00,WUHU216HW,2014-11-26 13:58:00,
2014-11-26 09:03:00,30.6,24.2,29.89,ENE,71,0.8,1.3,77,0.00,,,0.00,WUHU216HW,2014-11-26 14:03:00,
2014-11-26 09:08:00,30.6,24.0,29.89,East,82,1.0,2.0,76,0.00,,,0.00,WUHU216HW,2014-11-26 14:08:00,
2014-11-26 09:13:00,30.8,24.1,29.89,East,90,1.1,2.0,76,0.00,,,0.00,WUHU216HW,2014-11-26 14:13:00,
2014-11-26 09:18:00,31.0,24.3,29.89,ESE,113,1.3,2.7,76,0.00,,,0.00,WUHU216HW,2014-11-26 14:18:00,
2014-11-26 09:23:00,31.0,24.3,29.89,ENE,68,1.1,2.7,76,0.00,,,0.00,WUHU216HW,2014-11-26 14:23:00,
2014-11-26 09:28:00,31.1,24.5,29.88,NE,45,1.6,2.2,76,0.00,,,0.00,WUHU216HW,2014-11-26 14:28:00,
2014-11-26 09:33:00,31.0,24.3,29.88,NNE,26,0.9,2.2,76,0.00,,,0.00,WUHU216HW,2014-11-26 14:33:00,
2014-11-26 09:38:00,31.1,24.1,29.88,NNE,33,2.1,2.7,75,0.00,,,0.00,WUHU216HW,2014-11-26 14:38:00,
2014-11-26 09:43:00,31.3,24.3,29.88,ENE,68,2.7,2.7,75,0.00,,,0.00,WUHU216HW,2014-11-26 14:43:00,
2014-11-26 09:48:00,31.3,24.3,29.87,NE,45,0.9,2.7,75,0.00,,,0.00,WUHU216HW,2014-11-26 14:48:00,
2014-11-26 09:53:00,31.5,24.5,29.87,ENE,68,2.5,2.7,75,0.00,,,0.00,WUHU216HW,2014-11-26 14:53:00,
2014-11-26 09:58:00,31.7,24.7,29.87,NE,47,1.6,2.7,75,0.00,,,0.00,WUHU216HW,2014-11-26 14:58:00,
2014-11-26 10:03:00,31.9,24.8,29.88,ENE,70,1.1,2.5,75,0.00,,,0.00,WUHU216HW,2014-11-26 15:03:00,
2014-11-26 10:08:00,32.0,24.7,29.88,NNE,33,1.4,2.9,74,0.00,,,0.00,WUHU216HW,2014-11-26 15:08:00,
2014-11-26 10:13:00,32.0,24.7,29.88,East,101,1.0,2.9,74,0.00,,,0.00,WUHU216HW,2014-11-26 15:13:00,
2014-11-26 10:18:00,32.2,24.8,29.88,East,90,2.0,2.5,74,0.00,,,0.00,WUHU216HW,2014-11-26 15:18:00,
2014-11-26 10:23:00,32.4,25.0,29.88,NE,56,1.2,2.7,74,0.00,,,0.00,WUHU216HW,2014-11-26 15:23:00,
2014-11-26 10:28:00,32.4,24.7,29.87,NE,49,2.3,3.4,73,0.00,,,0.00,WUHU216HW,2014-11-26 15:28:00,
2014-11-26 10:33:00,32.4,24.7,29.87,ENE,62,0.8,3.4,73,0.00,,,0.00,WUHU216HW,2014-11-26 15:33:00,
2014-11-26 10:38:00,32.6,24.8,29.87,East,90,0.5,2.5,73,0.00,,,0.00,WUHU216HW,2014-11-26 15:38:00,
2014-11-26 10:43:00,32.8,25.0,29.88,ENE,77,1.4,1.8,73,0.00,,,0.00,WUHU216HW,2014-11-26 15:43:00,
2014-11-26 10:48:00,32.9,25.2,29.87,NE,45,1.3,2.5,73,0.00,,,0.00,WUHU216HW,2014-11-26 15:48:00,
2014-11-26 10:53:00,32.8,24.7,29.87,NE,45,1.1,2.5,72,0.00,,,0.00,WUHU216HW,2014-11-26 15:53:00,
2014-11-26 10:58:00,32.8,24.7,29.87,ENE,68,1.8,2.0,72,0.00,,,0.00,WUHU216HW,2014-11-26 15:58:00,
2014-11-26 11:03:00,33.1,25.0,29.87,ESE,112,2.2,3.4,72,0.00,,,0.00,WUHU216HW,2014-11-26 16:03:00,
2014-11-26 11:08:00,33.5,25.4,29.87,NNE,23,2.0,3.6,72,0.00,,,0.00,WUHU216HW,2014-11-26 16:08:00,
2014-11-26 11:13:00,33.5,25.4,29.87,ESE,113,3.8,4.5,72,0.00,,,0.00,WUHU216HW,2014-11-26 16:13:00,
2014-11-26 11:18:00,33.5,25.0,29.87,East,84,0.8,4.5,71,0.00,,,0.00,WUHU216HW,2014-11-26 16:18:00,
2014-11-26 11:23:00,33.7,25.5,29.86,ESE,113,3.4,3.8,72,0.00,,,0.00,WUHU216HW,2014-11-26 16:23:00,
2014-11-26 11:28:00,33.8,25.7,29.86,SE,135,2.7,3.4,72,0.00,,,0.00,WUHU216HW,2014-11-26 16:28:00,
2014-11-26 11:33:00,34.0,25.6,29.86,ESE,113,1.1,3.4,71,0.00,,,0.00,WUHU216HW,2014-11-26 16:33:00,
2014-11-26 11:38:00,34.2,25.8,29.86,NE,45,2.5,3.4,71,0.00,,,0.00,WUHU216HW,2014-11-26 16:38:00,
2014-11-26 11:43:00,34.0,25.2,29.85,ESE,103,2.2,4.0,70,0.00,,,0.00,WUHU216HW,2014-11-26 16:43:00,
2014-11-26 11:48:00,34.2,25.8,29.85,SE,135,4.3,5.1,71,0.00,,,0.00,WUHU216HW,2014-11-26 16:48:00,
2014-11-26 11:53:00,34.4,25.9,29.85,ENE,69,2.7,5.1,71,0.00,,,0.00,WUHU216HW,2014-11-26 16:53:00,
2014-11-26 11:58:00,34.2,25.4,29.85,ESE,107,2.1,4.9,70,0.00,,,0.00,WUHU216HW,2014-11-26 16:58:00,
2014-11-26 12:03:00,34.4,26.2,29.84,ENE,68,2.5,4.9,72,0.00,,,0.00,WUHU216HW,2014-11-26 17:03:00,
2014-11-26 12:08:00,34.6,26.4,29.84,East,86,2.8,5.1,72,0.00,,,0.00,WUHU216HW,2014-11-26 17:08:00,
2014-11-26 12:13:00,34.4,25.9,29.84,ESE,109,3.4,5.1,71,0.00,,,0.00,WUHU216HW,2014-11-26 17:13:00,
2014-11-26 12:18:00,34.4,26.2,29.84,SE,135,1.1,5.4,72,0.00,,,0.00,WUHU216HW,2014-11-26 17:18:00,
2014-11-26 12:23:00,34.6,26.4,29.84,East,91,2.0,5.4,72,0.00,,,0.00,WUHU216HW,2014-11-26 17:23:00,
2014-11-26 12:28:00,34.7,26.6,29.83,SSE,158,0.9,4.0,72,0.00,,,0.00,WUHU216HW,2014-11-26 17:28:00,
2014-11-26 12:33:00,34.6,26.4,29.83,East,101,1.8,3.8,72,0.00,,,0.00,WUHU216HW,2014-11-26 17:33:00,
2014-11-26 12:38:00,34.6,26.4,29.83,ESE,113,3.8,3.8,72,0.00,,,0.00,WUHU216HW,2014-11-26 17:38:00,
2014-11-26 12:43:00,34.6,26.4,29.83,ESE,113,2.5,3.8,72,0.00,,,0.00,WUHU216HW,2014-11-26 17:43:00,
2014-11-26 12:48:00,34.6,26.1,29.83,ESE,109,2.6,6.0,71,0.00,,,0.00,WUHU216HW,2014-11-26 17:48:00,
2014-11-26 12:53:00,34.2,25.8,29.83,East,90,2.5,6.0,71,0.00,,,0.00,WUHU216HW,2014-11-26 17:53:00,
2014-11-26 12:58:00,34.4,26.2,29.83,ESE,111,1.9,6.5,72,0.00,,,0.00,WUHU216HW,2014-11-26 17:58:00,
2014-11-26 13:03:00,34.6,26.4,29.82,ESE,106,3.3,6.5,72,0.00,,,0.00,WUHU216HW,2014-11-26 18:03:00,
2014-11-26 13:08:00,34.6,26.4,29.82,East,94,2.7,4.0,72,0.00,,,0.00,WUHU216HW,2014-11-26 18:08:00,
2014-11-26 13:13:00,34.6,26.4,29.82,East,97,2.7,4.0,72,0.00,,,0.00,WUHU216HW,2014-11-26 18:13:00,
2014-11-26 13:18:00,34.6,26.4,29.82,East,90,2.9,4.0,72,0.00,,,0.00,WUHU216HW,2014-11-26 18:18:00,
2014-11-26 13:23:00,34.6,26.1,29.82,ESE,113,4.0,4.0,71,0.00,,,0.00,WUHU216HW,2014-11-26 18:23:00,
2014-11-26 13:28:00,34.6,26.1,29.82,ESE,106,2.4,4.3,71,0.00,,,0.00,WUHU216HW,2014-11-26 18:28:00,
2014-11-26 13:33:00,34.7,26.3,29.82,East,101,2.3,4.3,71,0.00,,,0.00,WUHU216HW,2014-11-26 18:33:00,
2014-11-26 13:38:00,34.9,26.5,29.82,ENE,68,1.4,4.3,71,0.00,,,0.00,WUHU216HW,2014-11-26 18:38:00,
2014-11-26 13:43:00,34.7,26.3,29.82,East,80,1.9,3.4,71,0.00,,,0.00,WUHU216HW,2014-11-26 18:43:00,
2014-11-26 13:48:00,34.7,26.3,29.81,ENE,68,1.8,3.4,71,0.00,,,0.00,WUHU216HW,2014-11-26 18:48:00,
2014-11-26 13:53:00,35.1,26.7,29.82,ESE,113,3.4,4.0,71,0.00,,,0.00,WUHU216HW,2014-11-26 18:53:00,
2014-11-26 13:58:00,35.1,26.3,29.82,ESE,113,3.4,4.0,70,0.00,,,0.00,WUHU216HW,2014-11-26 18:58:00,
2014-11-26 14:03:00,34.9,26.1,29.81,ESE,113,0.9,3.4,70,0.00,,,0.00,WUHU216HW,2014-11-26 19:03:00,
2014-11-26 14:08:00,35.1,26.3,29.81,SSE,163,1.1,3.4,70,0.00,,,0.00,WUHU216HW,2014-11-26 19:08:00,
2014-11-26 14:13:00,34.9,26.5,29.81,East,90,1.6,2.9,71,0.00,,,0.00,WUHU216HW,2014-11-26 19:13:00,
2014-11-26 14:18:00,34.9,26.1,29.81,ENE,63,1.9,2.9,70,0.00,,,0.00,WUHU216HW,2014-11-26 19:18:00,
2014-11-26 14:23:00,34.9,26.1,29.81,ENE,68,0.8,2.7,70,0.00,,,0.00,WUHU216HW,2014-11-26 19:23:00,
2014-11-26 14:28:00,34.9,26.5,29.81,ESE,108,1.1,2.0,71,0.00,,,0.00,WUHU216HW,2014-11-26 19:28:00,
2014-11-26 14:33:00,35.1,26.7,29.81,East,90,1.3,1.8,71,0.00,,,0.00,WUHU216HW,2014-11-26 19:33:00,
2014-11-26 14:38:00,34.9,26.1,29.81,ESE,113,1.8,2.5,70,0.00,,,0.00,WUHU216HW,2014-11-26 19:38:00,
2014-11-26 14:43:00,34.9,26.5,29.81,East,88,1.7,3.1,71,0.00,,,0.00,WUHU216HW,2014-11-26 19:43:00,
2014-11-26 14:48:00,34.9,26.5,29.81,ESE,106,2.9,4.0,71,0.00,,,0.00,WUHU216HW,2014-11-26 19:48:00,
2014-11-26 14:53:00,34.9,26.5,29.81,SE,135,0.9,4.0,71,0.00,,,0.00,WUHU216HW,2014-11-26 19:53:00,
2014-11-26 14:58:00,34.9,26.5,29.81,ESE,107,2.3,4.0,71,0.00,,,0.00,WUHU216HW,2014-11-26 19:58:00,
2014-11-26 15:03:00,34.9,26.5,29.81,ENE,70,1.7,4.0,71,0.00,,,0.00,WUHU216HW,2014-11-26 20:03:00,
2014-11-26 15:08:00,34.7,26.3,29.81,ENE,74,1.4,3.4,71,0.00,,,0.00,WUHU216HW,2014-11-26 20:08:00,
2014-11-26 15:13:00,34.7,26.3,29.81,East,86,1.5,2.9,71,0.00,,,0.00,WUHU216HW,2014-11-26 20:13:00,
2014-11-26 15:18:00,34.6,26.1,29.81,ENE,68,2.7,3.6,71,0.00,,,0.00,WUHU216HW,2014-11-26 20:18:00,
2014-11-26 15:23:00,34.6,26.1,29.81,East,84,1.2,3.6,71,0.00,,,0.00,WUHU216HW,2014-11-26 20:23:00,
2014-11-26 15:28:00,34.6,26.1,29.81,East,90,0.4,2.7,71,0.00,,,0.00,WUHU216HW,2014-11-26 20:28:00,
2014-11-26 15:33:00,34.7,26.3,29.81,East,90,0.9,0.9,71,0.00,,,0.00,WUHU216HW,2014-11-26 20:33:00,
2014-11-26 15:38:00,34.9,26.5,29.80,ENE,68,2.2,2.9,71,0.00,,,0.00,WUHU216HW,2014-11-26 20:38:00,
2014-11-26 15:43:00,34.9,26.5,29.80,ENE,68,3.1,3.6,71,0.00,,,0.00,WUHU216HW,2014-11-26 20:43:00,
2014-11-26 15:48:00,34.7,26.3,29.80,East,87,1.5,3.6,71,0.00,,,0.00,WUHU216HW,2014-11-26 20:48:00,
2014-11-26 15:53:00,34.7,26.3,29.80,East,90,1.6,3.4,71,0.00,,,0.00,WUHU216HW,2014-11-26 20:53:00,
2014-11-26 15:58:00,34.6,26.1,29.81,NE,41,1.4,3.4,71,0.00,,,0.00,WUHU216HW,2014-11-26 20:58:00,
2014-11-26 16:03:00,34.4,25.9,29.81,ENE,68,2.0,3.4,71,0.00,,,0.00,WUHU216HW,2014-11-26 21:03:00,
2014-11-26 16:08:00,34.2,25.4,29.81,ENE,68,1.1,3.4,70,0.00,,,0.00,WUHU216HW,2014-11-26 21:08:00,
2014-11-26 16:13:00,34.2,25.4,29.82,NE,45,1.6,3.4,70,0.00,,,0.00,WUHU216HW,2014-11-26 21:13:00,
2014-11-26 16:18:00,34.2,25.4,29.81,NE,56,1.6,2.0,70,0.00,,,0.00,WUHU216HW,2014-11-26 21:18:00,
2014-11-26 16:23:00,34.7,26.6,29.81,NE,45,1.6,2.0,72,0.00,,,0.00,WUHU216HW,2014-11-26 21:23:00,
2014-11-26 16:28:00,34.7,26.3,29.82,NE,45,0.7,2.9,71,0.00,,,0.00,WUHU216HW,2014-11-26 21:28:00,
2014-11-26 16:33:00,34.4,25.9,29.81,NNE,23,1.1,2.9,71,0.00,,,0.00,WUHU216HW,2014-11-26 21:33:00,
2014-11-26 16:38:00,34.2,25.4,29.81,NE,45,0.7,2.2,70,0.00,,,0.00,WUHU216HW,2014-11-26 21:38:00,
2014-11-26 16:43:00,34.2,25.4,29.81,NE,35,1.8,3.1,70,0.00,,,0.00,WUHU216HW,2014-11-26 21:43:00,
2014-11-26 16:48:00,34.0,25.2,29.81,NNE,23,0.6,3.1,70,0.00,,,0.00,WUHU216HW,2014-11-26 21:48:00,
2014-11-26 16:53:00,34.0,25.2,29.82,NNE,23,1.8,2.0,70,0.00,,,0.00,WUHU216HW,2014-11-26 21:53:00,
2014-11-26 16:58:00,33.8,25.4,29.82,North,0,2.0,2.0,71,0.00,,,0.00,WUHU216HW,2014-11-26 21:58:00,
2014-11-26 17:03:00,33.8,25.4,29.81,NNE,23,1.8,2.2,71,0.00,,,0.00,WUHU216HW,2014-11-26 22:03:00,
2014-11-26 17:08:00,33.8,25.4,29.82,NE,45,2.7,2.9,71,0.00,,,0.00,WUHU216HW,2014-11-26 22:08:00,
2014-11-26 17:13:00,33.7,25.2,29.82,NNW,338,2.7,3.4,71,0.00,,,0.00,WUHU216HW,2014-11-26 22:13:00,
2014-11-26 17:18:00,33.7,25.2,29.82,NNE,18,1.2,3.4,71,0.00,,,0.00,WUHU216HW,2014-11-26 22:18:00,
2014-11-26 17:23:00,33.7,25.2,29.81,NE,45,2.2,2.7,71,0.00,,,0.00,WUHU216HW,2014-11-26 22:23:00,
2014-11-26 17:28:00,33.5,25.0,29.81,NE,45,2.7,4.0,71,0.00,,,0.00,WUHU216HW,2014-11-26 22:28:00,
2014-11-26 17:33:00,33.5,25.4,29.81,NNE,23,3.6,5.1,72,0.00,,,0.00,WUHU216HW,2014-11-26 22:33:00,
2014-11-26 17:38:00,33.5,25.7,29.81,NNE,23,3.1,5.1,73,0.00,,,0.00,WUHU216HW,2014-11-26 22:38:00,
2014-11-26 17:43:00,33.3,25.5,29.81,NNE,19,2.8,4.0,73,0.00,,,0.00,WUHU216HW,2014-11-26 22:43:00,
2014-11-26 17:48:00,33.1,25.4,29.81,NNE,23,1.3,4.0,73,0.00,,,0.00,WUHU216HW,2014-11-26 22:48:00,
2014-11-26 17:53:00,33.1,25.4,29.81,NNE,23,1.6,4.3,73,0.00,,,0.00,WUHU216HW,2014-11-26 22:53:00,
2014-11-26 17:58:00,33.1,25.4,29.81,NE,45,2.2,4.3,73,0.00,,,0.00,WUHU216HW,2014-11-26 22:58:00,
2014-11-26 18:03:00,33.1,25.4,29.81,NNE,23,1.8,2.2,73,0.00,,,0.00,WUHU216HW,2014-11-26 23:03:00,
2014-11-26 18:08:00,33.1,25.4,29.81,ENE,68,1.6,3.8,73,0.00,,,0.00,WUHU216HW,2014-11-26 23:08:00,
2014-11-26 18:13:00,33.1,25.4,29.81,NE,53,2.4,3.8,73,0.00,,,0.00,WUHU216HW,2014-11-26 23:13:00,
2014-11-26 18:18:00,33.1,25.4,29.81,NNE,28,1.4,3.4,73,0.00,,,0.00,WUHU216HW,2014-11-26 23:18:00,